Weather Roundup
Issued by NWS Corpus Christi, TX

Home | Current Version | Previous Version | Text Only | Print | Product List | Glossary On
Versions: 1 2 3 4 5 6 7 8 9 10 11 12 13 14 15 16 17 18 19 20 21 22 23 24 25 26 27 28 29 30 31 32 33 34 35 36 37 38 39 40 41 42 43 44 45 46 47 48 49 50
000
ASUS44 KCRP 270510
HRRCRP

SOUTH TEXAS REGIONAL WEATHER ROUNDUP
NATIONAL WEATHER SERVICE CORPUS CHRISTI TX
1200 AM CDT FRI APR 27 2018


TXZ229>244-270600-
...CORPUS CHRISTI AREA OBSERVATIONS...

CITY           SKY/WX    TMP DP  RH WIND       PRES   REMARKS
CORPUS CHRISTI MOCLDY    62  57  83 SE8       29.97S
NAS CORPUS CHR MOCLDY    66  61  84 SE6       29.97R
ROCKPORT       MOCLDY    60  54  80 CALM      29.97S
KINGSVILLE ARP FAIR      63  61  96 CALM      29.97S
KINGSVILLE NAS PTCLDY    61  59  93 E5        29.97S
ALICE          MOCLDY    60  56  86 SE3       29.97R
$$

...VICTORIA AREA OBSERVATIONS...

CITY           SKY/WX    TMP DP  RH WIND       PRES   REMARKS
PORT LAVACA    MOCLDY    59  55  85 N3        30.00R
VICTORIA       MOCLDY    60  54  80 NW3       30.00R
BEEVILLE       FAIR      59  53  79 NE3       29.99R
PLEASANTON     PTCLDY    62  55  77 SE3       30.01R
SAN ANTONIO    CLOUDY    63  53  70 SE3       29.98F
$$

...LAREDO AREA OBSERVATIONS...

CITY           SKY/WX    TMP DP  RH WIND       PRES   REMARKS
LAREDO         CLEAR     68  61  78 SE6       29.94S
COTULLA        CLEAR     66  56  70 E9        29.98R
DEL RIO        PTCLDY    70  54  56 E13       29.95S
MCALLEN        MOCLDY    71  66  84 E8        29.96S
HEBBRONVILLE   CLEAR     64  57  80 SE6       29.96S
$$

...OTHER TEXAS OBSERVATIONS...

CITY           SKY/WX    TMP DP  RH WIND       PRES   REMARKS
BROWNSVILLE    MOCLDY    71  66  84 E5        29.95F
HOUSTON        FAIR      64  51  62 N5        29.99S
COL. STATION   CLEAR     62  49  62 NE6       30.01R
AUSTIN         CLOUDY    55  53  93 CALM      30.00R
WACO           PTCLDY    58  47  66 E3        30.00S
FORT WORTH     MOCLDY    59  49  69 NE6       30.01R
WICHITA FALLS  CLOUDY    59  51  75 NW17      30.10R
LUBBOCK        PTCLDY    54  34  46 NE12      30.19R
EL PASO        CLOUDY    71  24  17 NE12G21   30.06R
$$

...MARINE OBSERVATIONS...

STATION/POSITION TIME  SKY/WX   TEMP    WIND        PRES    VSBY  WAVE   SWELL
                                AIR SEA DIR/SP/G                  HT/PER HT/PER
                 (UTC)          (F)     (DEG/KT/KT) (MB)    (MI)  (FT/S) (FT/S)
PORT ARANSAS     0500            69 72  150/  7/  9 1014.7S
BUOY 90 E PORT A 0450            70 74   50/  2/  2 1015.1R         1/ 5   2/ 5
BUOY 200 E PT IS 0450            72 76   60/  6/  8 1014.3R         3/ 6   2/ 6
BUOY 15 E GALVES NOT AVBL
$$



USA.gov is the U.S. government's official web portal to all federal, state and local government web resources and services.